Torna al catalogo

STARLINK-35024

AttivoComunicazioniVLEO
NORAD 65410·PAYLOAD·🇺🇸 United States

Lanciato Aug 31, 2025 da Cape Canaveral Space Force Station

Loading…

Prossimi Passaggi (prossime 24 ore)

TLE

AggiornatoSource: CelesTrak SupGP

Epoca: Sep 14, 2026, 20:59 UTC

1 65410C 25192G   26257.87479167 -.00006009  00000+0 -19332-3 0  2570
2 65410  53.1591  72.0318 0001184  79.6326 204.0633 15.31692115    13

Traccia STARLINK-35024 in tempo reale con AllMySat

Download on the App Store